TimeEST,TemperatureF,Dew PointF,Humidity,Sea Level PressureIn,VisibilityMPH,Wind Direction,Wind SpeedMPH,Gust SpeedMPH,PrecipitationIn,Events,Conditions,WindDirDegrees,DateUTC
12:56 AM,35.1,25.0,67,30.12,10.0,Calm,Calm,-,N/A,,Clear,0,2013-02-25 05:56:00
1:56 AM,34.0,24.1,67,30.10,10.0,NE,3.5,-,N/A,,Clear,50,2013-02-25 06:56:00
2:56 AM,34.0,24.1,67,30.11,10.0,East,3.5,-,N/A,,Clear,80,2013-02-25 07:56:00
3:56 AM,33.1,23.0,66,30.12,10.0,East,4.6,-,N/A,,Clear,90,2013-02-25 08:56:00
4:56 AM,32.0,23.0,69,30.13,10.0,ENE,5.8,-,N/A,,Clear,70,2013-02-25 09:56:00
5:56 AM,30.9,23.0,72,30.13,10.0,ENE,5.8,-,N/A,,Clear,70,2013-02-25 10:56:00
6:56 AM,30.9,21.9,69,30.13,10.0,ENE,6.9,-,N/A,,Clear,70,2013-02-25 11:56:00
7:56 AM,30.9,21.9,69,30.14,10.0,Variable,4.6,-,N/A,,Scattered Clouds,0,2013-02-25 12:56:00
8:56 AM,34.0,21.9,61,30.14,10.0,East,9.2,-,N/A,,Scattered Clouds,80,2013-02-25 13:56:00
9:56 AM,39.0,23.0,53,30.13,10.0,East,13.8,-,N/A,,Mostly Cloudy,80,2013-02-25 14:56:00
10:56 AM,41.0,23.0,49,30.12,10.0,East,13.8,-,N/A,,Mostly Cloudy,80,2013-02-25 15:56:00
11:56 AM,45.0,23.0,42,30.09,10.0,East,15.0,-,N/A,,Mostly Cloudy,100,2013-02-25 16:56:00
12:56 PM,46.9,23.0,39,30.05,10.0,East,10.4,-,N/A,,Scattered Clouds,80,2013-02-25 17:56:00
1:56 PM,50.0,23.0,35,30.01,10.0,ENE,12.7,-,N/A,,Scattered Clouds,60,2013-02-25 18:56:00
2:56 PM,51.1,23.0,33,29.97,10.0,ENE,12.7,-,N/A,,Scattered Clouds,60,2013-02-25 19:56:00
3:56 PM,51.1,21.9,32,29.96,10.0,ENE,10.4,-,N/A,,Mostly Cloudy,60,2013-02-25 20:56:00
4:56 PM,51.1,23.0,33,29.95,10.0,ENE,11.5,-,N/A,,Mostly Cloudy,70,2013-02-25 21:56:00
5:56 PM,48.9,21.9,35,29.91,10.0,ENE,13.8,-,N/A,,Mostly Cloudy,70,2013-02-25 22:56:00
6:56 PM,46.9,21.9,37,29.88,10.0,ENE,16.1,20.7,N/A,,Scattered Clouds,70,2013-02-25 23:56:00
7:56 PM,45.0,24.1,44,29.89,10.0,ENE,11.5,-,N/A,,Scattered Clouds,60,2013-02-26 00:56:00
8:56 PM,45.0,23.0,42,29.89,10.0,ENE,9.2,-,N/A,,Mostly Cloudy,70,2013-02-26 01:56:00
9:56 PM,45.0,23.0,42,29.88,10.0,ENE,16.1,24.2,N/A,,Overcast,70,2013-02-26 02:56:00
10:56 PM,44.1,23.0,43,29.84,10.0,ENE,11.5,-,N/A,,Overcast,70,2013-02-26 03:56:00
11:56 PM,44.1,23.0,43,29.80,10.0,East,10.4,19.6,N/A,,Overcast,80,2013-02-26 04:56:00